{"data":{"norad_id":51887,"intl_designator":"2022-022AM","name":"STARLINK-3551","alt_names":[],"object_type":"PAYLOAD","status":"ACTIVE","operator":null,"country":"US","launch_date":"2022-03-03","launch_site_code":"AFETR","launch_vehicle":null,"mission":null,"orbit_class":"UNKNOWN","rcs_meters":null,"size_class":null,"mass_kg":null,"dimensions":null,"purposes":["comms"],"wikipedia_slug":null,"has_3d_model":false,"image_url":null,"decayed_at":null,"tle_current":{"epoch":"2026-05-24T22:26:17.457792Z","epoch_age_seconds":84680,"freshness":"FRESH","line1":"1 51887U 22022AM  26144.93492428 -.00003122  00000+0 -17808-3 0  9991","line2":"2 51887  53.2137  16.8377 0001516  87.2015 272.9151 15.08851355234759","mean_motion":15.08851355,"eccentricity":0.0001516,"inclination_deg":53.2137,"raan_deg":16.8377,"arg_perigee_deg":87.2015,"mean_anomaly_deg":272.9151,"bstar":-0.00017808,"rev_number":23475,"period_min":95.436836453648,"perigee_km":538.65993608409,"apogee_km":540.75742689472,"semimajor_km":6917.8456814894,"source":"CELESTRAK","updated_at":"2026-05-25T13:38:16.987770Z"}}}